sat.trackr.live / text

‹ back to catalog

STARLINK-3279

NORAD 50185 · 2021-125AF

PAYLOAD ACTIVE UNKNOWN

§ Identity

Operator
Country
US
Launch date
2021-12-18
Launch site
AFWTR
Launch vehicle
Mass (kg)
RCS (m²)

Purposes: comms

External: N2YO · Heavens-Above · Gunter

§ Orbital elements

Epoch: 2026-09-14T20:25:16.553856Z

Period
94.01 min
Inclination
53.1602°
Eccentricity
0.0001200
Mean motion
15.31707694 rev/d
Perigee alt
469.9 km
Apogee alt
471.5 km
Semi-major
6,848.9 km
B*
-2.1872e-5
RAAN
108.0604°
Arg perigee
86.4570°
Mean anomaly
273.6569°
Rev number
26,532

§ Raw data

STARLINK-32791 50185U 21125AF  26257.85088604 -.00001044  00000+0 -21872-4 0  99952 50185  53.1602 108.0604 0001200  86.4570 273.6569 15.31707694265329

JSON: /api/v1/satellites/50185 · /tle

For live sub-satellite position, see the globe view (requires WebGL).

§ Visibility from observer

Set your observer location to see the next 7 days of passes ≥ 10°. The values pass through the URL so the page stays shareable.

No JS? Fill the form by hand. The geolocation button needs JavaScript.